ABS-3A

Last updated on Tue Sep 16 2025 00:02:48 GMT+0000 (Coordinated Universal Time)

1 40424U 15010A 25258.58388262 -.00000043 00000+0 00000+0 0 9991 2 40424 0.0104 159.6610 0001638 320.5074 81.8234 1.00270689 38626
UTC large
Height (km)
Speed (km/s)
/
Latitude / Longitude
Inclination (degrees)
Orbital Period (minutes)
Azimuth
Elevation
Range (km)
Doppler Factor

Next 0 passes for location: London (51.5072 / 0.1276)

Sorry there are no passes over London.